Retour au catalogue

STARLINK-37493

ActifCommunicationsSSO
NORAD 68910·PAYLOAD·🇺🇸 United States

Lancé Apr 30, 2026 depuis Vandenberg Space Force Base

Loading…

Prochains Passages (prochaines 24 heures)

TLE

FraisSource: CelesTrak SupGP

Époque: Sep 14, 2026, 23:00 UTC

1 68910C 26097R   26257.95881944  .00077642  00000+0  24104-2 0  2573
2 68910  97.2852  92.1588 0001669  95.0836 179.6653 15.33396619    19

Suivez STARLINK-37493 en temps réel avec AllMySat

Download on the App Store